Regional Weather Roundup
Issued by NWS

Home | Current Version | Previous Version | Graphics & Text | Print | Product List | Glossary On
Versions: 1 2 3 4 5 6 7 8 9 10 11 12 13 14 15 16 17 18 19 20 21 22 23 24 25 26 27 28 29 30 31 32 33 34 35 36 37 38 39 40 41 42 43 44 45 46 47 48 49 50
943
ASUS43 KOAX 210510
RWRNE

WEATHER ROUNDUP FOR NEBRASKA
NATIONAL WEATHER SERVICE OMAHA NE
1100 PM CST SAT JAN 20 2018

NOTES: SATELLITE DATA IS BEING USED TO AUGMENT CLOUD COVER ABOVE
       12000 FEET.
       "FAIR" INDICATES FEW OR NO CLOUDS BELOW 12,000 FEET WITH NO
       SIGNIFICANT WEATHER AND/OR OBSTRUCTIONS TO VISIBILITY.


NEZ001>004-019>022-054>056-210600-
NEBRASKA PANHANDLE

CITY           SKY/WX    TMP DP  RH WIND       PRES   REMARKS
SCOTTSBLUFF    CLOUDY    32  30  92 NE12      29.88S WCI  23
ALLIANCE       CLOUDY    30  30 100 NE13      29.88R WCI  20
CHADRON        LGT SNOW  31  30  96 NE8       29.94R VSB 3/4 WCI  23
GORDON         CLOUDY    32  30  94 N13       29.90S WCI  22
KIMBALL        CLOUDY    30  28  94 E12       29.83S WCI  20
SIDNEY         CLOUDY    31  29  92 NE13      29.84S WCI  21
$$

NEZ057>060-069>072-079>082-210600-
SOUTHWEST NEBRASKA

CITY           SKY/WX    TMP DP  RH WIND       PRES   REMARKS
NORTH PLATTE   CLOUDY    33  28  81 N15       29.85R WCI  23
IMPERIAL       CLOUDY    31  29  92 N12       29.83F WCI  22
LEXINGTON      CLOUDY    34  30  84 NE12      29.83S WCI  25
MCCOOK         CLOUDY    32  28  85 N14       29.80F WCI  22
OGALLALA       CLOUDY    33  31  92 NE8       29.86S WCI  26
$$

NEZ005>010-023>029-035>040-094-210600-
NORTH CENTRAL NEBRASKA

CITY           SKY/WX    TMP DP  RH WIND       PRES   REMARKS
VALENTINE      CLOUDY    37  33  85 N12       29.92S WCI  29
AINSWORTH      CLOUDY    33  33 100 N7        29.91S WCI  26
BROKEN BOW     CLOUDY    34  28  79 N13       29.85S WCI  25
O`NEILL        CLOUDY    32  32 100 N8        29.90S WCI  25
ORD            CLOUDY    33  29  85 N13       29.86S WCI  24
THEDFORD       CLOUDY    34  33  96 N6        29.90R WCI  29
$$

NEZ041-046>049-061>064-073>077-083>087-210600-
SOUTH CENTRAL NEBRASKA

CITY           SKY/WX    TMP DP  RH WIND       PRES   REMARKS
GRAND ISLAND   CLOUDY    35  32  88 N12       29.84S WCI  27
AURORA         CLOUDY    36  31  82 N9        29.82S WCI  29
HASTINGS       CLOUDY    35  32  88 N6        29.82S WCI  30
HEBRON         CLOUDY    36  35  97 NE5       29.80F FOG     WCI  32
HOLDREGE       CLOUDY    33  32  95 N12       29.81S WCI  24
KEARNEY        CLOUDY    34  30  85 NE14      29.83R WCI  25
YORK           CLOUDY    37  36  93 N8        29.83F WCI  31
$$

NEZ011>018-030>034-042>045-210600-
NORTHEAST NEBRASKA

CITY           SKY/WX    TMP DP  RH WIND       PRES   REMARKS
NORFOLK        CLOUDY    37  30  75 CALM      29.86F
ALBION         CLOUDY    30  28  91 NW5       29.87S WCI  25
BLAIR          CLOUDY    40  37  89 N7        29.85F WCI  35
COLUMBUS       CLOUDY    35  30  82 NE3       29.87R
FREMONT        CLOUDY    36  31  83 CALM      29.86F
TEKAMAH        CLOUDY    34  28  79 N6        29.88F WCI  29
WAYNE          CLOUDY    32  31  96 N3        29.88S
$$

NEZ050>053-065>068-078-088>093-210600-
SOUTHEAST NEBRASKA

CITY           SKY/WX    TMP DP  RH WIND       PRES   REMARKS
LINCOLN        CLOUDY    41  37  86 N6        29.86R
OMAHA EPPLEY   CLOUDY    37  34  89 N6        29.87S WCI  32
BEATRICE       PTCLDY    41  40  96 NE5       29.82S FOG
FALLS CITY     CLOUDY    41  39  93 NE3       29.84S FOG
NEBRASKA CITY  CLOUDY    41  41 100 NE3       29.84S FOG
PLATTSMOUTH    CLOUDY    40  39  97 E5        29.85S FOG
$$

NEZ044-045-051>053-067-210600-
OMAHA AREA

CITY           SKY/WX    TMP DP  RH WIND       PRES   REMARKS
OMAHA EPPLEY   CLOUDY    37  34  89 N6        29.87S WCI  32
BLAIR          CLOUDY    40  37  89 N7        29.85F WCI  35
FREMONT        CLOUDY    36  31  83 CALM      29.86F
MILLARD        CLOUDY    44  40  86 CALM      29.86S
OFFUTT AFB     CLOUDY    42  39  88 CALM      29.85S
PLATTSMOUTH    CLOUDY    40  39  97 E5        29.85S FOG
WAHOO          CLOUDY    38  31  76 N9        29.84F WCI  32
$$




USA.gov is the U.S. government's official web portal to all federal, state and local government web resources and services.